Погода в Порубе-Кеповской

Россия / Республика Коми     60°46′00″N   48°59′24″E
темп.,
°C
ветер,
м/с
пор.,
м/с
влажн.,
%
обл.,
%
осадки,
мм/ч
давл.,
гПа
погр.,
м
18 мая, ср
ср1800:00+4ссв4977100 0.0 1008710
03:00+1с398957 0.0 1008373
06:00+4ссв4761100 0.0 10081242
09:00+5с3562100 0.0 10071474
12:00+6с3461100 0.1 10071440
15:00+6с3463100 0.1 10071144
18:00+5ссв2366100 0.1 1007930
21:00+3ссз2278100 0.1 100761
19 мая, чт
чт1900:00+2ссз1382100 0.0 100687
03:00+1с1199100 0.1 100681
06:00+2зсз0199100 0.9 1006215
09:00+3с3589100 1.1 1006669
12:00+5сз2375100 0.6 1007772
15:00+8сз245491 1.4 10061580
18:00+6с246897 0.7 1007779
21:00+2с259024 1.0 1008109
20 мая, пт
пт2000:000ссз2894100 0.0 1009183
03:00+1ссз3998100 0.0 1010504
06:00+2ссз41097100 0.3 1010745
09:00+5с51180100 0.8 10111411
12:00+7с5956100 0.3 10111885
15:00+8ссз5956100 0.4 10111772
18:00+6ссз5854100 0.1 10121064
21:00+4ссз51068100 0.1 1012902
21 мая, сб
сб2100:00+2с4974100 0.0 1011767
03:00+1с51079100 0.0 1010835
06:00+1с5973100 0.0 10091051
09:00+2с51077100 0.2 10081056
12:00+2с61185100 0.8 10081112
15:00+2с51189100 1.8 10081104
18:00+2с51189100 0.5 1008943
21:00+1с41189100 0.6 1008740
22 мая, вс
вс2200:000с4109299 0.0 1008618
03:000с31088100 0.1 1008546
06:00+1с487877 0.0 1008681
09:00+5с465882 0.0 10081223
12:00+8с464572 0.0 10081702
15:00+10ссв463994 0.0 10082067
18:00+9ссв36380 0.0 10091879
21:00+3с22590 0.0 101140